Weather past 2 weeks in Bantam, Cocos Islands

Now
77 °F

Sprinkles. Broken clouds.


Feels Like: 78 °F
Forecast: 78 / 80 °F
Wind: 23 mph from Southeast

Location: Cocos Island Airport

Current Time: Sep 21, 2014 at 1:22:58 PM

Latest Report: Sep 21, 2014 at 12:35 PM


Visibility: 2 mi

Pressure: 29.95 "Hg

Humidity: 89%

Dew point: 73 °F

Location of BantamLocation

Historic Weather in Bantam — Graph

°F

Bantam temperature yesterday

Maximum temperature yesterday: 84 °F (at 11:00 AM)
Minimum temperature yesterday: 79 °F (at 12:30 AM)
Average temperature yesterday: 81 °F

Past Weeks' High & Low Weather Summary

 TemperatureHumidityPressure
High84 °F (Sep 9, 11:30 AM)100% (Sep 6, 9:30 PM)30.01 "Hg (Sep 6, 9:30 PM)
Low73 °F (Sep 6, 9:30 PM)54% (Sep 13, 8:30 AM)29.80 "Hg (Sep 16, 3:30 PM)
Average81 °F72%29.93 "Hg
* Reported Sep 6 11:30 AM — Sep 21 11:30 AM, Bantam, Weather by CustomWeather, © 2014

Note: Actual official high and low records may vary slightly from our data, if they occured in-between our weather recording intervals... More about our weather records

Advertising

Bantam weather history for previous 24 hours

 ConditionsComfort  
Time TempWeatherWind HumidityBarometerVisibility
11:30 AM
Sep 21
82 °FScattered showers. Broken clouds.22 mph74%29.98 "HgN/A
11:00 AM82 °FBroken clouds.21 mph70%29.98 "HgN/A
10:30 AM82 °FBroken clouds.22 mph70%30.01 "HgN/A
10:00 AM82 °FBroken clouds.22 mph70%30.01 "HgN/A
9:30 AM82 °FScattered showers. Broken clouds.22 mph70%30.01 "HgN/A
9:00 AM82 °FBroken clouds.22 mph74%30.01 "HgN/A
8:30 AM81 °FBroken clouds.22 mph74%29.98 "HgN/A
8:00 AM81 °FScattered showers. Broken clouds.23 mph74%29.98 "HgN/A
7:30 AM81 °FScattered showers. Broken clouds.24 mph70%29.98 "HgN/A
7:00 AM81 °FDrizzle. Broken clouds.22 mph74%29.95 "HgN/A
6:30 AM81 °FScattered showers. Partly cloudy.21 mph74%29.95 "HgN/A
6:00 AM81 °FPartly cloudy.20 mph74%29.95 "HgN/A
5:30 AM81 °FScattered showers. Partly cloudy.18 mph74%29.92 "HgN/A
4:30 AM79 °FWarm.18 mph79%29.92 "HgN/A
4:00 AM79 °FPartly cloudy.18 mph84%29.92 "HgN/A
3:30 AM79 °FMostly cloudy.15 mph84%29.92 "HgN/A
2:30 AM79 °FOvercast.16 mph79%29.92 "HgN/A
2:00 AM79 °FOvercast.13 mph84%29.92 "HgN/A
1:30 AM77 °FOvercast.16 mph89%29.92 "HgN/A
1:00 AM77 °FOvercast.16 mph89%29.95 "HgN/A
12:30 AM77 °FOvercast.17 mph83%29.95 "HgN/A
12:00 AM77 °FOvercast.13 mph89%29.95 "HgN/A
7:30 PM
Sep 20
79 °FOvercast.17 mph84%29.92 "HgN/A
7:00 PM79 °FSprinkles. Overcast.17 mph84%29.92 "HgN/A
6:30 PM81 °FCloudy.12 mph79%29.92 "HgN/A
6:00 PM81 °FCloudy.13 mph79%29.89 "HgN/A
5:30 PM81 °FPartly sunny.13 mph74%29.89 "HgN/A
4:30 PM81 °FScattered showers. Broken clouds.16 mph79%29.89 "HgN/A
4:00 PM81 °FScattered showers. Broken clouds.15 mph84%29.89 "HgN/A
3:30 PM82 °FRain showers. Partly sunny.13 mph74%29.86 "HgN/A
3:00 PM82 °FSprinkles. Partly sunny.10 mph74%29.86 "HgN/A
2:30 PM84 °FBroken clouds.14 mph70%29.86 "HgN/A
2:00 PM84 °FPartly sunny.13 mph70%29.86 "HgN/A
1:30 PM84 °FPartly sunny.13 mph70%29.86 "HgN/A
1:00 PM82 °FPartly sunny.14 mph74%29.89 "HgN/A
Weather by CustomWeather, © 2014

See weather overviewHow to use our weather pages